Back to catalog

THOR ABLESTAR DEB

AliveLEO
NORAD 3164·DEBRIS·🇺🇸 United States

Launched Jun 29, 1961 from Cape Canaveral Space Force Station

Loading…

Next Passes (next 24 hours)

TLE

FreshSource: Space-Track

Epoch: Sep 13, 2026, 22:16 UTC

1  3164U 61015HZ  26256.92828149  .00000632  00000-0  44040-3 0  9997
2  3164  66.7450 227.5931 0048986 337.0187  22.8706 14.04547551100278

Track THOR ABLESTAR DEB in real time with AllMySat

Download on the App Store